Overview Statistics Trail Chart Weather Telemetry Raw packets
 

This is the latest recevied weather packets stored in our database for station/object N7IGG. If no packets are shown the sender has not sent any weather packets the latest 10 day(s).

<< 14 15 16 17 18 19 20 >>
Time Temp. Humidity Pressure Rain* Wind** Luminosity Snow
1778093245 12.22° C 92% 1020.7 hPa 0 mm - 126 W/m² -
1778092942 12.22° C 92% 1020.8 hPa 0 mm - 104 W/m² -
1778092639 12.22° C 93% 1021 hPa 0 mm - 100 W/m² -
1778092335 11.67° C 93% 1020.8 hPa 0 mm - 106 W/m² -
1778092032 12.22° C 93% 1020.9 hPa 0 mm - 119 W/m² -
1778091729 11.67° C 94% 1020.8 hPa 0 mm - 94 W/m² -
1778091427 11.67° C 94% 1021 hPa 0 mm - 87 W/m² -
1778091124 11.67° C 94% 1020.9 hPa 0 mm - 95 W/m² -
1778090821 11.11° C 94% 1020.8 hPa 0 mm - 95 W/m² -
1778090517 11.11° C 95% 1020.6 hPa 0 mm - 89 W/m² -
1778090214 11.11° C 95% 1020.4 hPa 0 mm - 106 W/m² -
1778089910 11.11° C 95% 1020.4 hPa 0 mm - 116 W/m² -
1778089603 11.11° C 96% 1020.5 hPa 0 mm - 102 W/m² -
1778089299 11.11° C 96% 1020.4 hPa 0 mm - 97 W/m² -
1778088998 11.11° C 96% 1020.4 hPa 0 mm - 147 W/m² -
1778088694 11.11° C 96% 1020.5 hPa 0 mm - 126 W/m² -
1778088391 11.67° C 96% 1020.5 hPa 0 mm - 73 W/m² -
1778088087 11.67° C 97% 1020.6 hPa 0 mm - 108 W/m² -
1778087785 11.67° C 97% 1020.4 hPa 0 mm - 98 W/m² -
1778087483 11.67° C 97% 1020.5 hPa 0 mm - 76 W/m² -
1778087180 11.11° C 97% 1020.7 hPa 0 mm - 65 W/m² -
1778086877 11.67° C 97% 1020.6 hPa 0 mm - 57 W/m² -
1778086576 11.11° C 97% 1020.5 hPa 0 mm - 50 W/m² -
1778086271 11.11° C 97% 1020.6 hPa 0 mm - 59 W/m² -
1778085968 11.11° C 97% 1020.6 hPa 0 mm - 51 W/m² -

* Rain latest hour (hover to see other rain measurements)
** Current wind speed in m/s (hover to see current wind gust speed)